Location: B?dimalle
(17.1788°N, 80.5377°E)
Time: 20:35:28
(UTC+00:00)

Explorer 7 - All Passes

Search period start: 15 February 2026 00:00
Search period end: 25 February 2026 00:00
Orbit: 431 x 545 km, 50.2° (Epoch: 15 February)

Date Brightness Start Highest point End Pass type
(mag) Time Alt. Az. Time Alt. Az. Time Alt. Az.
15 Feb - 08:05:17 10° S 08:08:18 29° SE 08:11:22 10° ENE daylight
15 Feb - 09:44:58 10° WNW 09:46:41 13° NW 09:48:26 10° NNW daylight
15 Feb - 18:05:52 10° NNW 18:09:47 47° NE 18:13:45 10° ESE night (unlit)
15 Feb - 19:46:38 10° WSW 19:47:58 11° SW 19:49:19 10° SW night (unlit)
16 Feb - 07:39:47 10° S 07:42:44 27° SE 07:45:44 10° ENE daylight
16 Feb - 09:19:14 10° WNW 09:21:06 14° NW 09:23:00 10° N daylight
16 Feb - 17:40:18 10° NNW 17:44:10 44° NE 17:48:06 10° ESE night (unlit)
16 Feb - 19:20:43 10° W 19:22:22 12° SW 19:24:01 10° SSW night (unlit)
17 Feb - 07:14:17 10° S 07:17:09 25° SE 07:20:03 10° ENE daylight
17 Feb - 08:53:29 10° W 08:55:29 15° NW 08:57:30 10° N daylight
17 Feb - 17:14:42 10° NNW 17:18:31 41° NE 17:22:24 10° ESE night (unlit)
17 Feb - 18:54:50 10° W 18:56:45 13° SW 18:58:38 10° SSW night (unlit)
18 Feb - 06:48:44 10° S 06:51:32 23° SE 06:54:21 10° ENE daylight
18 Feb - 08:27:43 10° W 08:29:50 15° NW 08:32:00 10° N daylight
18 Feb - 16:49:06 10° NNW 16:52:50 38° NE 16:56:41 10° ESE night (unlit)
18 Feb - 18:28:58 10° W 18:31:04 14° SW 18:33:11 10° SSW night (unlit)
19 Feb - 06:23:10 10° S 06:25:53 22° SE 06:28:35 10° ENE daylight
19 Feb - 08:01:55 10° W 08:04:10 16° NW 08:06:26 10° N daylight
19 Feb - 16:23:27 10° NNW 16:27:09 36° NE 16:30:55 10° ESE night (unlit)
19 Feb - 18:03:06 10° W 18:05:23 15° SW 18:07:41 10° SSW night (unlit)
20 Feb - 05:57:36 10° S 06:00:12 20° SE 06:02:49 10° ENE daylight
20 Feb - 07:36:06 10° W 07:38:28 17° NW 07:40:50 10° N daylight
20 Feb - 15:57:48 10° NNW 16:01:24 33° NE 16:05:06 10° ESE night (unlit)
20 Feb - 17:37:12 10° W 17:39:39 16° SW 17:42:07 10° SSW night (unlit)
21 Feb - 05:32:00 10° S 05:34:30 19° SE 05:36:59 10° E daylight
21 Feb - 07:10:16 10° W 07:12:44 18° NW 07:15:12 10° N daylight
21 Feb - 15:32:06 10° NNW 15:35:39 31° NE 15:39:16 10° ESE night (unlit)
21 Feb - 17:11:19 10° W 17:13:54 16° SW 17:16:31 10° SSW night (unlit)
22 Feb - 05:06:22 10° S 05:08:45 18° SE 05:11:08 10° E daylight
22 Feb - 06:44:25 10° W 06:46:58 19° NW 06:49:33 10° N daylight
22 Feb - 15:06:24 10° NNW 15:09:51 29° NE 15:13:23 10° ESE night (unlit)
22 Feb - 16:45:24 10° W 16:48:07 18° SW 16:50:52 10° S night (unlit)
23 Feb - 04:40:44 10° SSE 04:42:59 16° SE 04:45:13 10° E daylight
23 Feb - 06:18:31 10° W 06:21:11 21° NW 06:23:51 10° N daylight
23 Feb - 14:40:41 10° NNW 14:44:01 27° NE 14:47:29 10° ESE visible
23 Feb - 16:19:29 10° W 16:22:18 19° SW 16:25:11 10° S night (unlit)
24 Feb - 04:15:05 10° SSE 04:17:11 15° SE 04:19:16 10° E daylight
24 Feb - 05:52:37 10° W 05:55:22 22° NW 05:58:07 10° N daylight
24 Feb - 14:14:56 10° N 14:18:11 25° NE 14:21:31 10° ESE visible
24 Feb - 15:53:32 10° WNW 15:56:28 20° SW 15:59:27 10° S night (unlit)
